Weather in Sauðárkrókur

Iceland     65°44′47″N   19°38′31″W
temp.,
°C
wind,
m/s
gust,
m/s
humid.,
%
clouds,
%
prec.,
mm/h
press.,
hPa
HPBL,
m
22 april, thu
thu2200:00+2s3498100 4.6 1019248
03:00+2s3588100 0.0 1019121
06:00+1s3487100 0.0 1020118
09:00+2s2378100 0.0 1021255
12:00+4sse2368100 0.0 1021532
15:00+5se1376100 0.0 1021678
18:00+3se1394100 0.8 1022415
21:00+3sse3797100 1.9 1023482
23 april, fri
fri2300:00+3sse4896100 3.5 1023423
03:00+3sse3790100 0.3 1023336
06:00+3s4887100 0.3 1023239
09:00+4s5778100 0.0 1023242
12:00+5s4679100 0.1 1024216
15:00+7s5574100 0.0 1024361
18:00+6s5684100 0.0 1025288
21:00+4s5690100 0.0 1026167
24 april, sat
sat2400:00+4s4686100 0.0 1027118
03:00+4s4682100 0.0 1027101
06:00+4s4782100 0.0 1026143
09:00+6s3478100 0.0 1027170
12:00+6sse3490100 1.0 1027132
15:00+9se237899 0.1 1026361
18:00+9se3476100 0.1 1024318
21:00+7sse4585100 0.0 1024119
25 april, sun
sun2500:00+5s4790100 0.4 1023212
03:00+5s3592100 1.4 1022521
06:00+5ssw2392100 2.4 1021120
09:00+4nw2294100 0.8 1023116
12:00+4nnw2397100 0.9 1024297
15:00+4nnw3498100 0.1 1027229
18:00+3n3398100 0.1 1028175
21:00+3nnw119785 0.0 1029102
26 april, mon
mon2600:00+3sw009485 0.0 1030144
03:00+3e009570 0.0 103032
06:00+3sse129084 0.0 1031163
09:00+5ssw117847 0.0 1032444
12:00+7ne117095 0.0 1032571
15:00+6nne217578 0.0 1032589
18:00+4nne218779 0.0 1032241
21:00+5e117995 0.0 1031292